#timestamp,LO_Frequency,Hit,StdDev 
1620021615.8,286047001.1,N
1620021635.7,286047001.7,N
1620021655.5,286047010.0,N
1620021675.3,286047006.7,N
1620021695.2,286047011.9,N
1620021715.0,286047013.5,N
1620021715.9,286047013.5,N
1620021735.8,286047008.1,N
1620021755.6,286047013.1,N
1620021775.4,286047011.6,N
1620021795.3,286047009.6,N
1620021815.1,286047012.7,N
1620021835.8,286047015.6,N
1620021855.7,286047016.9,N
1620021875.5,286047023.1,Y
1620021895.4,286047006.8,P
1620021915.2,286046999.6,N
1620021935.0,286046994.4,N
1620021935.9,286046994.4,N
1620021955.8,286046989.5,N
1620021975.6,286046990.0,N
1620021995.5,286046997.8,N
1620022015.3,286046997.7,N
1620022035.1,286047001.1,N
1620022055.9,286047004.6,N
1620022075.7,286047008.4,N
1620022095.5,286047004.2,N
1620022115.4,286047007.0,N
1620022135.2,286047009.4,N
1620022155.1,286047014.5,N
1620022156.0,286047014.5,N
1620022175.8,286047012.8,N
1620022195.6,286047009.0,N
1620022215.5,286047005.5,N
1620022235.3,286047010.0,N
1620022255.1,286047004.9,N
1620022275.9,286047009.6,N
1620022295.7,286047011.3,N
1620022315.6,286047010.0,N
1620022335.4,286047005.7,N
1620022355.2,286047005.7,N
1620022375.1,286047004.1,N
1620022376.0,286047004.1,N
1620022395.8,286047001.5,N
1620022415.7,286047005.1,N
1620022435.5,286047006.9,N
1620022455.4,286047006.4,N
1620022475.2,286047003.0,N
1620022495.0,286047007.4,N
1620022495.9,286047007.4,N
1620022515.8,286047006.4,N
1620022535.6,286047005.4,N
1620022555.5,286046993.8,N
1620022575.3,286046989.1,N
1620022595.1,286046988.7,N
1620022615.9,286046983.1,N
1620022635.7,286046985.3,N
1620022655.6,286046988.5,N
1620022675.4,286046990.1,N
1620022695.2,286046992.7,N
1620022715.1,286046996.3,N
1620022716.0,286046996.3,N
1620022735.8,286046992.9,N
1620022755.7,286046990.6,N
1620022775.5,286046992.9,N
1620022795.3,286046993.9,N
1620022815.2,286047017.2,N
1620022835.0,286046989.2,N
1620022835.9,286046989.2,N
1620022855.8,286046987.5,N
1620022875.6,286046982.5,N
1620022895.4,286046985.7,N
1620022915.3,286046991.0,N
1620022935.1,286046993.1,N
1620022955.9,286046988.8,N
1620022975.7,286046986.1,N
1620022995.5,286046986.4,N
1620023015.4,286046984.0,N
1620023035.2,286046982.0,N
1620023055.0,286046981.1,N
1620023055.9,286046981.1,N
1620023075.8,286046980.9,N
1620023095.6,286046987.6,N
1620023115.5,286046992.7,N
1620023135.3,286046989.1,N
1620023155.1,286046989.1,N
1620023175.9,286046994.2,N
1620023195.7,286046997.4,N
1620023215.6,286046992.0,N
1620023235.4,286046994.2,N
1620023255.2,286046990.8,N
1620023275.1,286046993.0,N
1620023276.0,286046993.0,N
1620023295.8,286046985.8,N
1620023315.7,286046979.2,Y
1620023335.5,286046987.3,P
1620023355.3,286046991.5,P
1620023375.2,286046989.4,P
1620023395.0,286046990.4,Y
1620023395.9,286046990.4,P
1620023415.7,286047002.3,P
1620023435.6,286047002.1,N
1620023455.4,286047001.4,N
1620023475.3,286047000.2,N
1620023495.1,286047003.8,N
1620023496.0,286047003.8,N
1620023515.8,286047003.1,N
1620023535.7,286047007.0,N
1620023555.5,286047004.0,N
1620023575.4,286047002.2,N
1620023595.2,286047001.4,N
1620023615.0,286047002.6,N
1620023615.9,286047002.6,N
1620023635.8,286047002.5,N
1620023655.6,286047001.9,N
1620023675.4,286046995.9,N
1620023695.3,286046993.7,N
1620023715.1,286046999.4,N
1620023735.9,286047001.0,N
1620023755.7,286046990.8,N
1620023775.5,286046987.9,N
1620023795.4,286046984.8,N
1620023815.2,286046983.5,N
1620023835.0,286046981.9,N
1620023835.9,286046981.9,N
1620023855.8,286046977.5,N
1620023875.6,286046981.6,N
1620023895.5,286046981.5,N
1620023915.3,286046984.3,N
1620023935.1,286046987.7,N
1620023955.9,286046987.8,N
1620023975.7,286046987.1,N
1620023995.6,286046986.3,N
1620024015.4,286046976.8,N
1620024035.2,286046972.8,N
1620024055.1,286046975.5,N
1620024056.0,286046975.5,N
1620024075.8,286046975.2,N
1620024095.6,286046974.5,N
1620024115.5,286046971.6,N
1620024135.3,286046975.6,N
1620024155.2,286046978.5,N
1620024175.9,286046980.0,N
1620024195.7,286046974.5,N
1620024215.6,286046971.3,Y
1620024265.4,286046986.0,E
1620024275.4,286046991.8,N
1620024295.2,286046997.9,P
1620024315.0,286046999.0,N
1620024315.9,286046999.0,N
1620024335.8,286046998.2,N
1620024355.6,286046994.7,N
1620024375.5,286046993.8,N
1620024395.3,286046993.7,N
1620024415.2,286046997.4,N
1620024435.9,286046992.6,N
1620024455.7,286046990.1,Y
1620024475.6,286046990.2,P
1620024495.4,286046984.6,P
1620024515.3,286046983.6,P
1620024535.1,286046981.6,Y
1620024536.0,286046981.6,P
1620024555.8,286046987.1,P
1620024575.7,286046990.0,P
1620024595.5,286046988.6,Y
1620024615.4,286047002.9,P
1620024635.2,286047003.0,N
1620024655.0,286046998.4,N
1620024655.9,286046998.4,N
1620024675.8,286046997.3,N
1620024695.6,286046992.2,N
1620024715.5,286046994.4,N
1620024735.3,286046994.6,N
1620024755.1,286046991.6,N
1620024775.9,286046987.2,N
1620024795.7,286046983.1,Y
1620024815.6,286046989.4,P
1620024835.4,286046993.1,N
1620024855.2,286046988.6,P
1620024875.1,286046982.4,Y
1620024876.0,286046982.4,P
1620024895.8,286046988.0,N
1620024915.7,286046987.9,P
1620024935.5,286046989.4,Y
1620024955.3,286046998.6,P
1620024975.2,286047002.3,N
1620024995.0,286047001.4,N
1620024995.9,286047001.4,N
1620025015.7,286047001.5,N
1620025035.6,286047008.9,N
1620025055.4,286047007.6,N
1620025075.3,286047005.5,N
1620025095.1,286047004.3,N
1620025096.0,286047004.3,N
1620025115.8,286047004.9,N
1620025135.7,286047007.1,N
1620025155.5,286047005.5,N
1620025175.3,286047006.0,N
1620025195.2,286047005.7,N
